| time (UTC) | temp F | wind direction | speed knots | gust knots | rain 1hr in | rain 24hr in | rain mn in | humidity % | barometer mb |
| 20260509075037 | 71 | 213 | 1.7 | 6.1 | 0.00 | 0.00 | 0.00 | 92 | 1010.5 |
| 20260509074043 | 71 | 214 | 2.6 | 7.8 | 0.00 | 0.00 | 0.00 | 91 | 1010.9 |
| 20260509073044 | 71 | 218 | 3.5 | 7.0 | 0.00 | 0.00 | 0.00 | 91 | 1011.1 |
| 20260509072044 | 71 | 221 | 2.6 | 5.2 | 0.00 | 0.00 | 0.00 | 92 | 1011.4 |
| 20260509071024 | 70 | 222 | 1.7 | 3.5 | 0.00 | 0.00 | 0.00 | 93 | 1011.7 |
| 20260509070025 | 70 | 250 | 0.0 | 2.6 | 0.00 | 0.00 | 0.00 | 93 | 1011.6 |
| 20260509065025 | 70 | 246 | 0.9 | 2.6 | 0.00 | 0.00 | 0.00 | 93 | 1011.6 |
| 20260509064045 | 70 | 230 | 1.7 | 3.5 | 0.00 | 0.00 | 0.00 | 92 | 1011.3 |
| 20260509063025 | 70 | 223 | 2.6 | 5.2 | 0.00 | 0.00 | 0.00 | 91 | 1011.2 |
| 20260509062025 | 70 | 218 | 2.6 | 3.5 | 0.00 | 0.00 | 0.00 | 91 | 1011.4 |
| 20260509061045 | 70 | 220 | 1.7 | 3.5 | 0.00 | 0.00 | 0.00 | 91 | 1011.3 |
| 20260509060024 | 70 | 230 | 0.9 | 1.7 | 0.00 | 0.00 | 0.00 | 90 | 1011.6 |
| 20260509055024 | 71 | 242 | 0.9 | 1.7 | 0.00 | 0.00 | 0.00 | 89 | 1012.1 |
| 20260509054044 | 71 | 240 | 0.9 | 1.7 | 0.00 | 0.00 | 0.00 | 88 | 1011.9 |
| 20260509053024 | 71 | 240 | 0.9 | 1.7 | 0.00 | 0.00 | 0.00 | 87 | 1012.3 |
| 20260509052024 | 71 | 297 | 0.9 | 1.7 | 0.00 | 0.00 | 0.00 | 87 | 1012.7 |
| 20260509051024 | 71 | 296 | 0.9 | 1.7 | 0.00 | 0.00 | 0.00 | 87 | 1011.6 |
| 20260509050025 | 72 | 232 | 0.9 | 2.6 | 0.00 | 0.00 | 0.00 | 86 | 1011.3 |
| 20260509045045 | 72 | 209 | 2.6 | 7.0 | 0.00 | 0.00 | 0.00 | 85 | 1010.9 |
| 20260509044025 | 72 | 204 | 3.5 | 6.1 | 0.00 | 0.00 | 0.00 | 84 | 1011.2 |
| 20260509043043 | 73 | 217 | 1.7 | 3.5 | 0.00 | 0.00 | 0.00 | 84 | 1011.2 |
| 20260509042024 | 73 | 233 | 0.9 | 5.2 | 0.00 | 0.00 | 0.00 | 83 | 1011.0 |
| 20260509041024 | 73 | 60 | 1.7 | 5.2 | 0.00 | 0.00 | 0.00 | 83 | 1011.3 |
| 20260509040024 | 73 | 188 | 1.7 | 3.5 | 0.00 | 0.00 | 0.00 | 83 | 1011.3 |
| 20260509035024 | 73 | 323 | 0.9 | 1.7 | 0.00 | 0.00 | 0.00 | 82 | 1011.9 |
| 20260509034025 | 73 | 318 | 0.9 | 1.7 | 0.00 | 0.00 | 0.00 | 82 | 1011.7 |
| 20260509033025 | 73 | 8 | 0.9 | 1.7 | 0.00 | 0.00 | 0.00 | 82 | 1011.4 |
| 20260509032023 | 73 | 314 | 0.0 | 0.9 | 0.00 | 0.00 | 0.00 | 82 | 1011.4 |
| 20260509031023 | 73 | 354 | 0.9 | 1.7 | 0.00 | 0.00 | 0.00 | 82 | 1011.2 |
| 20260509030025 | 72 | 247 | 0.9 | 3.5 | 0.00 | 0.00 | 0.00 | 83 | 1010.8 |
| 20260509025025 | 72 | 233 | 0.9 | 2.6 | 0.00 | 0.00 | 0.00 | 83 | 1010.8 |
| 20260509024025 | 72 | 241 | 0.9 | 2.6 | 0.00 | 0.00 | 0.00 | 82 | 1010.4 |
| 20260509023026 | 72 | 234 | 0.9 | 3.5 | 0.00 | 0.00 | 0.00 | 82 | 1010.3 |
| 20260509022044 | 72 | 214 | 1.7 | 5.2 | 0.00 | 0.00 | 0.00 | 82 | 1010.1 |
| 20260509021044 | 72 | 212 | 0.9 | 2.6 | 0.00 | 0.00 | 0.00 | 81 | 1010.1 |
| 20260509020104 | 73 | 225 | 0.9 | 2.6 | 0.00 | 0.00 | 0.00 | 81 | 1010.0 |
| 20260509015024 | 73 | 225 | 1.7 | 3.5 | 0.00 | 0.00 | 0.00 | 81 | 1009.9 |
| 20260509014045 | 73 | 208 | 2.6 | 6.1 | 0.00 | 0.00 | 0.00 | 80 | 1010.1 |
| 20260509013024 | 73 | 216 | 2.6 | 6.1 | 0.00 | 0.00 | 0.00 | 80 | 1010.1 |
| 20260509012025 | 73 | 222 | 1.7 | 5.2 | 0.00 | 0.00 | 0.00 | 80 | 1009.9 |
| 20260509011025 | 73 | 239 | 1.7 | 3.5 | 0.00 | 0.00 | 0.00 | 79 | 1009.6 |
| 20260509010025 | 73 | 218 | 1.7 | 3.5 | 0.00 | 0.00 | 0.00 | 79 | 1009.5 |
| 20260509005023 | 73 | 199 | 2.6 | 8.7 | 0.00 | 0.00 | 0.00 | 78 | 1009.4 |
| 20260509004023 | 73 | 204 | 1.7 | 5.2 | 0.00 | 0.00 | 0.00 | 78 | 1009.5 |
| 20260509003024 | 74 | 192 | 1.7 | 7.0 | 0.00 | 0.00 | 0.00 | 77 | 1009.3 |
| 20260509002024 | 74 | 212 | 2.6 | 7.8 | 0.00 | 0.00 | 0.00 | 77 | 1009.3 |
| 20260509001024 | 74 | 210 | 1.7 | 6.1 | 0.00 | 0.00 | 0.00 | 76 | 1009.4 |
| 20260509000024 | 74 | 211 | 4.3 | 6.1 | 0.00 | 0.00 | 0.00 | 76 | 1009.6 |
| 20260508234044 | 74 | 211 | 3.5 | 7.8 | 0.00 | 0.00 | 0.00 | 75 | 1009.8 |
| 20260508233024 | 75 | 213 | 2.6 | 7.0 | 0.00 | 0.00 | 0.00 | 74 | 1009.7 |
| 20260508232044 | 76 | 233 | 1.7 | 3.5 | 0.00 | 0.00 | 0.00 | 72 | 1009.8 |
| 20260508231025 | 77 | 200 | 2.6 | 7.0 | 0.00 | 0.00 | 0.00 | 70 | 1009.9 |
| 20260508230105 | 76 | 222 | 1.7 | 5.2 | 0.00 | 0.00 | 0.00 | 70 | 1009.8 |
| 20260508225025 | 75 | 235 | 2.6 | 7.0 | 0.00 | 0.00 | 0.00 | 71 | 1010.0 |
| 20260508224023 | 76 | 208 | 6.1 | 9.6 | 0.00 | 0.00 | 0.00 | 71 | 1009.9 |
| 20260508223023 | 76 | 219 | 4.3 | 12.2 | 0.00 | 0.00 | 0.00 | 71 | 1009.8 |
| 20260508222024 | 76 | 209 | 5.2 | 11.3 | 0.00 | 0.00 | 0.00 | 71 | 1009.8 |
| 20260508221024 | 76 | 213 | 3.5 | 7.8 | 0.00 | 0.00 | 0.00 | 71 | 1009.7 |
| 20260508220024 | 75 | 207 | 3.5 | 9.6 | 0.00 | 0.00 | 0.00 | 72 | 1009.8 |
| 20260508215024 | 76 | 210 | 4.3 | 7.8 | 0.00 | 0.00 | 0.00 | 70 | 1009.8 |
| 20260508214035 | 77 | 206 | 1.7 | 5.2 | 0.00 | 0.00 | 0.00 | 69 | 1009.9 |
| 20260508213025 | 77 | 213 | 2.6 | 6.1 | 0.00 | 0.00 | 0.00 | 69 | 1010.1 |
| 20260508212025 | 78 | 197 | 1.7 | 3.5 | 0.00 | 0.00 | 0.00 | 66 | 1009.9 |
| 20260508211045 | 77 | 225 | 1.7 | 5.2 | 0.00 | 0.00 | 0.00 | 67 | 1010.0 |
| 20260508210023 | 73 | 213 | 2.6 | 7.0 | 0.00 | 0.00 | 0.00 | 72 | 1010.7 |
| 20260508205024 | 73 | 212 | 3.5 | 6.1 | 0.00 | 0.00 | 0.00 | 73 | 1011.3 |
| 20260508204024 | 73 | 201 | 3.5 | 7.8 | 0.00 | 0.00 | 0.00 | 72 | 1011.5 |
| 20260508203024 | 74 | 198 | 6.1 | 11.3 | 0.00 | 0.00 | 0.00 | 71 | 1012.0 |
| 20260508202024 | 74 | 212 | 3.5 | 7.8 | 0.00 | 0.00 | 0.00 | 71 | 1011.9 |
| 20260508201024 | 75 | 200 | 3.5 | 8.7 | 0.00 | 0.00 | 0.00 | 70 | 1011.8 |
| 20260508200025 | 76 | 217 | 1.7 | 3.5 | 0.00 | 0.00 | 0.00 | 69 | 1011.9 |
| 20260508195025 | 76 | 207 | 3.5 | 8.7 | 0.00 | 0.00 | 0.00 | 67 | 1011.7 |
| 20260508194105 | 77 | 215 | 3.5 | 7.0 | 0.00 | 0.00 | 0.00 | 67 | 1011.9 |
| 20260508193024 | 76 | 205 | 3.5 | 7.0 | 0.00 | 0.00 | 0.00 | 68 | 1012.0 |
| 20260508192024 | 76 | 206 | 5.2 | 7.8 | 0.00 | 0.00 | 0.00 | 68 | 1012.2 |
| 20260508191024 | 77 | 207 | 3.5 | 9.6 | 0.00 | 0.00 | 0.00 | 67 | 1012.1 |
| 20260508190024 | 77 | 207 | 5.2 | 11.3 | 0.00 | 0.00 | 0.00 | 66 | 1012.1 |
| 20260508185024 | 79 | 223 | 1.7 | 6.1 | 0.00 | 0.00 | 0.00 | 64 | 1012.2 |
| 20260508184024 | 77 | 213 | 1.7 | 6.1 | 0.00 | 0.00 | 0.00 | 65 | 1012.3 |
| 20260508183045 | 78 | 198 | 2.6 | 7.8 | 0.00 | 0.00 | 0.00 | 65 | 1012.3 |
| 20260508182025 | 80 | 228 | 1.7 | 6.1 | 0.00 | 0.00 | 0.00 | 61 | 1012.6 |
| 20260508181025 | 76 | 225 | 1.7 | 5.2 | 0.00 | 0.00 | 0.00 | 66 | 1012.8 |
| 20260508180025 | 76 | 212 | 2.6 | 7.8 | 0.00 | 0.00 | 0.00 | 65 | 1013.1 |
| 20260508175023 | 76 | 223 | 2.6 | 7.8 | 0.00 | 0.00 | 0.00 | 65 | 1013.1 |
| 20260508174023 | 75 | 206 | 3.5 | 7.8 | 0.00 | 0.00 | 0.00 | 66 | 1013.3 |
| 20260508173044 | 75 | 204 | 3.5 | 8.7 | 0.00 | 0.00 | 0.00 | 65 | 1013.3 |
| 20260508172044 | 74 | 213 | 2.6 | 7.0 | 0.00 | 0.00 | 0.00 | 65 | 1013.5 |
| 20260508171024 | 75 | 163 | 2.6 | 7.0 | 0.00 | 0.00 | 0.00 | 64 | 1013.8 |
| 20260508170024 | 72 | 223 | 1.7 | 7.0 | 0.00 | 0.00 | 0.00 | 67 | 1014.2 |
| 20260508165024 | 72 | 211 | 4.3 | 7.8 | 0.00 | 0.00 | 0.00 | 67 | 1014.3 |
| 20260508164045 | 73 | 197 | 2.6 | 7.0 | 0.00 | 0.00 | 0.00 | 66 | 1014.4 |
| 20260508163045 | 72 | 204 | 3.5 | 7.8 | 0.00 | 0.00 | 0.00 | 66 | 1014.7 |
| 20260508162025 | 71 | 209 | 3.5 | 7.8 | 0.00 | 0.00 | 0.00 | 68 | 1015.0 |
| 20260508161045 | 71 | 172 | 2.6 | 7.0 | 0.00 | 0.00 | 0.00 | 68 | 1015.0 |
| 20260508160025 | 71 | 241 | 1.7 | 3.5 | 0.00 | 0.00 | 0.00 | 68 | 1015.1 |
| 20260508155023 | 69 | 209 | 1.7 | 5.2 | 0.00 | 0.00 | 0.00 | 70 | 1015.2 |
| 20260508154023 | 69 | 198 | 2.6 | 7.8 | 0.00 | 0.00 | 0.00 | 70 | 1015.5 |
| 20260508153023 | 69 | 220 | 1.7 | 6.1 | 0.00 | 0.00 | 0.00 | 70 | 1015.5 |
| 20260508152024 | 68 | 197 | 2.6 | 7.0 | 0.00 | 0.00 | 0.00 | 70 | 1015.6 |
| 20260508151024 | 67 | 213 | 2.6 | 7.0 | 0.00 | 0.00 | 0.00 | 71 | 1015.5 |
| 20260508150024 | 67 | 217 | 3.5 | 6.1 | 0.00 | 0.00 | 0.00 | 71 | 1015.6 |
| 20260508145024 | 67 | 220 | 2.6 | 6.1 | 0.00 | 0.00 | 0.00 | 71 | 1015.3 |
| 20260508144025 | 67 | 201 | 1.7 | 6.1 | 0.00 | 0.00 | 0.00 | 70 | 1015.4 |
| 20260508143025 | 67 | 206 | 3.5 | 8.7 | 0.00 | 0.00 | 0.00 | 71 | 1015.6 |
| 20260508142025 | 67 | 210 | 4.3 | 11.3 | 0.00 | 0.00 | 0.00 | 70 | 1015.8 |
| 20260508141023 | 68 | 235 | 1.7 | 6.1 | 0.00 | 0.00 | 0.00 | 70 | 1015.7 |
| 20260508140045 | 68 | 147 | 2.6 | 5.2 | 0.00 | 0.00 | 0.00 | 70 | 1015.7 |
| 20260508135046 | 67 | 119 | 1.7 | 5.2 | 0.00 | 0.00 | 0.00 | 71 | 1015.7 |
| 20260508134023 | 67 | 250 | 0.9 | 2.6 | 0.00 | 0.00 | 0.00 | 72 | 1015.7 |
| 20260508133024 | 65 | 229 | 0.9 | 3.5 | 0.00 | 0.00 | 0.00 | 74 | 1015.6 |
| 20260508132024 | 65 | 169 | 0.9 | 3.5 | 0.00 | 0.00 | 0.00 | 78 | 1015.7 |
| 20260508131024 | 64 | 249 | 0.9 | 1.7 | 0.00 | 0.00 | 0.00 | 78 | 1015.8 |
| 20260508130024 | 64 | 223 | 0.9 | 3.5 | 0.00 | 0.00 | 0.00 | 78 | 1015.8 |
| 20260508125024 | 64 | 302 | 0.9 | 2.6 | 0.00 | 0.00 | 0.00 | 80 | 1015.9 |
| 20260508124024 | 63 | 243 | 0.0 | 1.7 | 0.00 | 0.00 | 0.00 | 81 | 1015.9 |
| 20260508123025 | 63 | 245 | 0.9 | 2.6 | 0.00 | 0.00 | 0.00 | 81 | 1016.2 |
| 20260508122023 | 63 | 236 | 0.9 | 2.6 | 0.00 | 0.00 | 0.00 | 81 | 1015.9 |
| 20260508121023 | 63 | 237 | 0.9 | 2.6 | 0.00 | 0.00 | 0.00 | 82 | 1015.8 |
| 20260508120025 | 63 | 252 | 0.9 | 3.5 | 0.00 | 0.00 | 0.00 | 82 | 1016.0 |
| 20260508115045 | 63 | 238 | 0.9 | 2.6 | 0.00 | 0.00 | 0.00 | 82 | 1016.1 |
| 20260508114144 | 63 | 235 | 0.9 | 3.5 | 0.00 | 0.00 | 0.00 | 82 | 1016.0 |
| 20260508113024 | 63 | 232 | 0.9 | 2.6 | 0.00 | 0.00 | 0.00 | 82 | 1016.0 |
| 20260508112024 | 63 | 242 | 0.9 | 2.6 | 0.00 | 0.00 | 0.00 | 84 | 1015.6 |
| 20260508111024 | 62 | 175 | 1.7 | 2.6 | 0.00 | 0.00 | 0.00 | 85 | 1015.5 |
| 20260508110024 | 63 | 221 | 0.9 | 1.7 | 0.00 | 0.00 | 0.00 | 85 | 1016.4 |
| 20260508105024 | 63 | 282 | 0.9 | 2.6 | 0.00 | 0.00 | 0.00 | 84 | 1016.5 |
| 20260508104024 | 63 | 299 | 0.9 | 0.9 | 0.00 | 0.00 | 0.00 | 84 | 1015.7 |
| 20260508103025 | 62 | 253 | 0.9 | 1.7 | 0.00 | 0.00 | 0.00 | 84 | 1015.3 |
| 20260508102025 | 62 | 256 | 0.0 | 0.9 | 0.00 | 0.00 | 0.00 | 84 | 1015.1 |
| 20260508101025 | 63 | 237 | 0.9 | 2.6 | 0.00 | 0.00 | 0.00 | 83 | 1015.0 |
| 20260508100025 | 63 | 235 | 1.7 | 6.1 | 0.00 | 0.00 | 0.00 | 81 | 1015.1 |
| 20260508095024 | 63 | 224 | 1.7 | 3.5 | 0.00 | 0.00 | 0.00 | 80 | 1014.9 |
| 20260508094024 | 63 | 236 | 0.9 | 2.6 | 0.00 | 0.00 | 0.00 | 81 | 1015.2 |
| 20260508093044 | 63 | 242 | 0.0 | 1.7 | 0.00 | 0.00 | 0.00 | 82 | 1015.1 |
| 20260508092024 | 63 | 0.0 | 0.0 | 0.00 | 0.00 | 0.00 | 81 | 1015.3 | |
| 20260508091024 | 63 | 296 | 0.0 | 0.9 | 0.00 | 0.00 | 0.00 | 81 | 1015.3 |
| 20260508090025 | 63 | 291 | 0.0 | 0.9 | 0.00 | 0.00 | 0.00 | 80 | 1015.2 |
| 20260508085025 | 64 | 291 | 0.0 | 0.9 | 0.00 | 0.00 | 0.00 | 79 | 1015.6 |
| 20260508084045 | 63 | 224 | 1.7 | 3.5 | 0.00 | 0.00 | 0.00 | 80 | 1015.3 |
| 20260508083025 | 63 | 77 | 0.9 | 3.5 | 0.00 | 0.00 | 0.00 | 81 | 1015.3 |
| 20260508082023 | 63 | 232 | 0.9 | 1.7 | 0.00 | 0.00 | 0.00 | 82 | 1015.9 |
| 20260508081024 | 63 | 0.0 | 0.0 | 0.00 | 0.00 | 0.00 | 82 | 1016.3 | |
| 20260508080024 | 63 | 9 | 0.9 | 1.7 | 0.00 | 0.00 | 0.00 | 82 | 1016.4 |